DW9160 Weather Reports


time (UTC)temp
F
wind
direction
speed
knots
gust
knots
rain 1hr
in
rain 24hr
in
rain mn
in
humidity
%
barometer
mb
20260506135542 41 0.0 0.0 0.00 0.00 0.00 85 1016.3
20260506134515 41 0.0 0.0 0.00 0.00 0.00 85 1016.2
20260506133523 41 0.0 0.0 0.00 0.00 0.00 85 1015.8
20260506132520 41 0.0 0.0 0.00 0.00 0.00 85 1016.0
20260506131521 41 0.0 0.0 0.00 0.00 0.00 85 1015.9
20260506130522 41 0.0 0.0 0.00 0.00 0.00 83 1015.9
20260506125522 42 0.0 0.0 0.00 0.00 0.00 82 1015.7
20260506124522 42 0.0 0.0 0.00 0.00 0.00 82 1015.6
20260506123539 42 0.0 0.0 0.00 0.00 0.00 83 1015.5
20260506122521 43 0.0 0.0 0.00 0.00 0.00 81 1015.4
20260506121522 43 0.0 0.0 0.00 0.00 0.00 80 1015.7
20260506120521 43 0.0 0.0 0.00 0.00 0.00 80 1015.7
20260506115543 44 0.0 0.0 0.00 0.00 0.00 81 1015.7
20260506114524 44 0.0 0.0 0.00 0.00 0.00 82 1015.6
20260506113518 44 0.0 0.0 0.00 0.00 0.00 82 1015.5
20260506112516 44 0.0 0.0 0.00 0.00 0.00 82 1015.4
20260506111520 44 0.0 0.0 0.00 0.00 0.00 82 1015.4
20260506110521 44 0.0 0.0 0.00 0.00 0.00 82 1015.4
20260506105542 44 0.0 0.0 0.00 0.00 0.00 82 1015.3
20260506104544 44 0.0 0.0 0.00 0.00 0.00 82 1015.3
20260506103526 44 0.0 0.0 0.00 0.00 0.00 81 1015.3
20260506102523 44 0.0 0.0 0.00 0.00 0.00 80 1015.3
20260506101523 44 0.0 0.0 0.00 0.00 0.00 79 1015.2
20260506100524 45 0.0 0.0 0.00 0.00 0.00 77 1015.5
20260506095523 46 0.0 0.0 0.00 0.00 0.00 75 1015.4
20260506094523 47 0.0 0.0 0.00 0.00 0.00 75 1015.7
20260506093524 47 0.0 0.0 0.00 0.00 0.00 74 1015.7
20260506092519 48 0.0 0.0 0.00 0.00 0.00 74 1015.5
20260506091544 48 0.0 0.0 0.00 0.00 0.00 75 1015.5
20260506090522 48 0.0 0.0 0.00 0.00 0.00 75 1015.4
20260506085525 48 0 1.7 4.3 0.00 0.00 0.00 75 1015.4
20260506084523 48 0 3.5 5.2 0.00 0.00 0.00 76 1015.3
20260506083522 47 0.0 0.0 0.00 0.00 0.00 79 1015.3
20260506082522 47 0.0 0.0 0.00 0.00 0.00 79 1015.3
20260506081537 48 0.0 0.0 0.00 0.00 0.00 78 1015.3
20260506080522 48 0.0 0.0 0.00 0.00 0.00 77 1015.2
20260506073524 50 0.0 0.0 0.00 0.00 0.00 74 1015.2
20260506072524 51 0.0 0.0 0.00 0.00 0.00 74 1015.5
20260506071539 51 0.0 0.0 0.00 0.00 0.00 74 1015.4
20260506070521 51 0.0 0.0 0.00 0.00 0.00 74 1015.3
20260506061522 54 0.0 0.0 0.00 0.00 0.00 71 1015.1
20260506060521 55 0.0 0.0 0.00 0.00 0.00 71 1014.9
20260506050523 56 0.0 2.6 0.00 0.00 0.00 70 1014.6
20260506044517 57 0 2.6 3.5 0.00 0.00 0.00 69 1014.6
20260506043524 57 248 3.5 5.2 0.00 0.00 0.00 69 1014.4
20260506042542 57 0 2.6 5.2 0.00 0.00 0.00 69 1014.3
20260506041523 57 0 3.5 6.1 0.00 0.00 0.00 68 1014.2
20260506040523 58 0 3.5 7.0 0.00 0.00 0.00 67 1014.0
20260506035525 58 0 3.5 5.2 0.00 0.00 0.00 66 1013.8
20260506034525 59 0 4.3 7.0 0.00 0.00 0.00 64 1013.9
20260506033522 60 0 4.3 6.1 0.00 0.00 0.00 62 1013.7
20260506032523 62 0 4.3 7.8 0.00 0.00 0.00 59 1013.8
20260506031523 62 0 5.2 9.6 0.00 0.00 0.00 57 1013.6
20260506030523 63 0 6.1 9.6 0.00 0.00 0.00 56 1013.8
20260506025524 64 0 4.3 8.7 0.00 0.00 0.00 53 1013.6
20260506024526 65 0 4.3 8.7 0.00 0.00 0.00 50 1013.7
20260506023520 66 0 8.7 13.0 0.00 0.00 0.00 47 1013.6
20260506022518 66 0 7.8 12.2 0.00 0.00 0.00 46 1013.5
20260506021525 67 0 7.0 13.0 0.00 0.00 0.00 44 1013.7
20260506020524 68 0 7.8 13.9 0.00 0.00 0.00 43 1013.7
20260506015522 68 0 7.8 13.9 0.00 0.00 0.00 41 1013.7
20260506014524 69 0 9.6 16.5 0.00 0.00 0.00 40 1013.9
20260506013525 69 0 10.4 16.5 0.00 0.00 0.00 38 1013.9
20260506012520 70 0 8.7 14.8 0.00 0.00 0.00 38 1013.8
20260506011542 70 0 9.6 14.8 0.00 0.00 0.00 37 1013.6
20260506010523 71 0 9.6 15.6 0.00 0.00 0.00 37 1013.8
20260506005522 71 0 9.6 15.6 0.00 0.00 0.00 37 1013.8
20260506004522 71 0 9.6 19.1 0.00 0.00 0.00 38 1013.7
20260506003522 72 0 11.3 18.2 0.00 0.00 0.00 36 1013.7
20260506002523 72 0 11.3 21.7 0.00 0.00 0.00 36 1013.6
20260506001519 72 0 11.3 17.4 0.00 0.00 0.00 36 1013.5
20260506000543 73 0 12.2 19.1 0.00 0.00 0.00 35 1013.8
20260505235524 73 0 11.3 19.1 0.00 0.00 0.00 36 1013.7
20260505234523 73 0 11.3 18.2 0.00 0.00 0.00 36 1013.8
20260505233527 73 0 11.3 19.1 0.00 0.00 0.00 37 1013.8
20260505232523 72 0 10.4 18.2 0.00 0.00 0.00 37 1013.5
20260505231523 73 0 10.4 17.4 0.00 0.00 0.00 37 1013.8
20260505230518 71 0 7.8 11.3 0.00 0.00 0.00 41 1013.3
20260505225524 71 0 7.8 12.2 0.00 0.00 0.00 39 1013.6
20260505224524 72 0 10.4 17.4 0.00 0.00 0.00 40 1013.7
20260505223524 74 0 7.8 14.8 0.00 0.00 0.00 38 1014.0
20260505222525 72 0 8.7 13.9 0.00 0.00 0.00 38 1013.8
20260505221524 73 0 7.8 12.2 0.00 0.00 0.00 37 1014.1
20260505220519 75 0 7.8 13.9 0.00 0.00 0.00 36 1014.5
20260505215518 75 0 7.0 13.0 0.00 0.00 0.00 36 1014.5
20260505214546 74 0 9.6 14.8 0.00 0.00 0.00 37 1014.2
20260505213523 73 0 7.8 12.2 0.00 0.00 0.00 37 1013.8
20260505212522 73 0 7.0 15.6 0.00 0.00 0.00 39 1014.3
20260505211523 73 0 7.8 13.9 0.00 0.00 0.00 38 1014.1
20260505210606 72 0 7.8 13.9 0.00 0.00 0.00 41 1014.0
20260505205521 71 0 7.8 14.8 0.00 0.00 0.00 42 1014.0
20260505204524 70 0 5.2 8.7 0.00 0.00 0.00 44 1013.8
20260505203522 70 0 6.1 9.6 0.00 0.00 0.00 42 1013.9
20260505202523 71 0 7.8 13.0 0.00 0.00 0.00 39 1014.0
20260505201523 72 0 7.8 13.0 0.00 0.00 0.00 38 1014.0
20260505200519 71 0 7.8 13.9 0.00 0.00 0.00 40 1014.2
20260505195523 70 0 7.0 9.6 0.00 0.00 0.00 38 1013.9
20260505194518 71 0 4.3 7.8 0.00 0.00 0.00 38 1014.3
20260505193543 71 0 1.7 6.1 0.00 0.00 0.00 38 1014.3
20260505192526 70 0 4.3 8.7 0.00 0.00 0.00 42 1014.1
20260505191524 69 0 4.3 11.3 0.00 0.00 0.00 44 1014.2
20260505190525 68 0 7.0 9.6 0.00 0.00 0.00 46 1013.8
20260505185524 68 0 6.1 11.3 0.00 0.00 0.00 49 1013.8
20260505184524 67 0 6.1 12.2 0.00 0.00 0.00 49 1013.9
20260505183518 66 0 7.8 12.2 0.00 0.00 0.00 54 1013.7
20260505182523 65 0 7.0 11.3 0.00 0.00 0.00 55 1013.8
20260505181523 64 0 7.0 9.6 0.00 0.00 0.00 52 1013.5
20260505180524 64 0 7.0 9.6 0.00 0.00 0.00 53 1013.5
20260505175522 64 0 4.3 7.8 0.00 0.00 0.00 53 1013.5
20260505174521 62 0 4.3 7.0 0.00 0.00 0.00 50 1013.1
20260505173517 62 0 5.2 8.7 0.00 0.00 0.00 50 1013.1
20260505172519 61 0 5.2 7.8 0.00 0.00 0.00 50 1013.1
20260505171523 60 0 6.1 8.7 0.00 0.00 0.00 52 1012.8
20260505170525 59 0 5.2 8.7 0.00 0.00 0.00 54 1012.8
20260505165525 59 0 6.1 8.7 0.00 0.00 0.00 57 1012.9
20260505164527 58 0 6.1 9.6 0.00 0.00 0.00 60 1012.6
20260505163524 57 0 7.0 9.6 0.00 0.00 0.00 62 1012.6
20260505162518 56 0 7.0 9.6 0.00 0.00 0.00 64 1012.3
20260505161523 56 0 7.0 9.6 0.00 0.00 0.00 66 1012.3
20260505160521 55 0 7.8 11.3 0.00 0.00 0.00 68 1012.3
20260505152524 52 338 0.9 4.3 0.00 0.00 0.00 75 1011.6
20260505151517 51 0 3.5 6.1 0.00 0.00 0.00 77 1011.6
20260505150542 51 0 0.9 5.2 0.00 0.00 0.00 82 1011.4
20260505140518 44 0 1.7 3.5 0.00 0.00 0.00 93 1010.2